Regional Weather Roundup
Issued by NWS Columbia, SC

Home | Current Version | Previous Version | Text Only | Print | Product List | Glossary On
Versions: 1 2 3 4 5 6 7 8 9 10 11 12 13 14 15 16 17 18 19 20 21 22 23 24 25 26 27
000
ASUS42 KCAE 060210
RWRCAE
REGIONAL WEATHER ROUNDUP
NATIONAL WEATHER SERVICE COLUMBIA SC
1000 PM EDT THU MAY 05 2016

NOTE: "FAIR" INDICATES FEW OR NO CLOUDS BELOW 12,000 FEET WITH NO
SIGNIFICANT WEATHER AND/OR OBSTRUCTIONS TO VISIBILITY.

NOT ALL STATIONS ARE QUALITY CONTROLLED BY THE NATIONAL
WEATHER SERVICE. USE DATA WITH CAUTION...ESPECIALLY
DEWPOINT OBSERVATIONS.

SCZ001>056-GAZ040-063>065-077-060300-
...UPSTATE SOUTH CAROLINA...

CITY           SKY/WX    TMP DP  RH WIND       PRES   REMARKS
ANDERSON       CLEAR     55  39  54 NW12      29.78R
LIBERTY        PTCLDY    53  39  61 NW8       29.77R
SPARTANBURG    LGT RAIN  54  41  62 N6        29.77R
CLEMSON        PTCLDY    55  38  52 NW8       29.79R
GREENVILLE     CLOUDY    55  38  52 N7        29.78R
GREENWOOD      CLEAR     52  40  63 N6        29.78R
GREER          CLOUDY    55  39  54 N9        29.77R
ROCK HILL      LGT RAIN  49  46  90 N5        29.76R
CHESTER        RAIN      50  43  76 NW9G17    29.77R
LAURENS        CLOUDY    54  39  58 N8        29.76R


...CENTRAL SOUTH CAROLINA...

CITY           SKY/WX    TMP DP  RH WIND       PRES   REMARKS
COLUMBIA APT   PTCLDY    59  44  57 NW9       29.74R
COLUMBIA OWENS MOCLDY    60  41  49 VRB7      29.75R
MCENTIRE ANGB  LGT RAIN  57  45  62 N13G18    29.74R
ORANGEBURG     CLEAR     54  44  69 W7        29.74R
SUMTER SHAW    LGT RAIN  54  46  76 N15G22    29.72R
NEWBERRY       PTCLDY    54  41  62 N6        29.79R
AIKEN          FAIR      48  43  81 W6        29.78R
BARNWELL       FAIR      55  46  71 W6        29.76R
MANNING        FAIR      55  43  62 W3        29.72R
CAMDEN           N/A    N/A N/A N/A MISG        N/A
LANCASTER      CLOUDY    50  46  87 NW6       29.76R
WINNSBORO      CLOUDY    50  46  87 NE9       29.75R


...EASTERN AND COASTAL SOUTH CAROLINA...

CITY           SKY/WX    TMP DP  RH WIND       PRES   REMARKS
MYRTLE BEACH   MOCLDY    54  43  66 NW6       29.72R
N MYRTLE BCH   CLEAR     53  49  86 W5        29.69R
CONWAY         FAIR      52  46  82 CALM      29.72R
MARION         FAIR      50  46  87 NW6       29.71S
HARTSVILLE     MOCLDY    50  41  71 CALM      29.74R
FLORENCE       CLOUDY    53  48  83 N7        29.72R
DARLINGTON     CLEAR     50  45  83 NW10      29.74R
CHARLESTON APT PTCLDY    59  41  51 NW9       29.73R
MOUNT PLEASANT FAIR      61  41  48 W9        29.74R
WALTERBORO     PTCLDY    59  41  51 W6        29.75R
BEAUFORT       CLEAR     61  40  45 W12G21    29.76R


...EASTERN GEORGIA...

CITY           SKY/WX    TMP DP  RH WIND       PRES   REMARKS
AUGUSTA BUSH F CLEAR     52  46  80 W5        29.76R
AUGUSTA DANIEL CLEAR     55  45  68 W9        29.76R
THOMSON        CLEAR     52  50  95 W6        29.83R
WASHINGTON     FAIR      52  41  66 CALM      29.79R
CLAXTON        MOCLDY    58  47  68 W7        29.79S
SYLVANIA       MOCLDY    57  46  65 N6        29.78R
STATESBORO     CLOUDY    60  49  66 NW5       29.77S
SAVANNAH       LGT RAIN  59  41  51 NW10      29.78R


...SOUTHERN NORTH CAROLINA...

CITY           SKY/WX    TMP DP  RH WIND       PRES   REMARKS
CHARLOTTE      LGT RAIN  49  45  86 NW7       29.75R
MONROE         LGT RAIN  50  44  80 NW6       29.74R
WADESBORO      CLOUDY    52  39  60 NW8       29.73R
ROCKINGHAM     CLOUDY    51  42  71 NW7       29.72R
RUTHERFORDTON  RAIN      48  47  95 CALM      29.78R
ASHEVILLE      LGT RAIN  46  39  76 N16G23    29.79R

$$




USA.gov is the U.S. government's official web portal to all federal, state and local government web resources and services.